Theta_e
321 320 321 321 320 320 320 320 320 318 317 316 316 317 318 317 312 306 300 307 313 320 317 308 309 308 309 306 307 306 298 294 294 294 296 299 299 302 304 304 306 309 309 312 322
321 321 321 321 320 320 320 321 320 318 317 316 315 316 316 315 305 301 308 315 316 318 307 305 303 305 303 303 305 302 297 295 297 297 296 298 298 298 300 301 303 307 313 314 319
321 321 320 320 320 319 319 320 321 319 316 317 317 317 315 310 302 299 312 314 315 314 307 306 305 304 300 302 301 300 296 297 296 298 297 296 297 298 298 298 301 301 304 314 315
321 320 320 320 319 319 319 320 320 319 318 318 317 317 314 306 294 302 314 312 313 308 305 304 303 300 298 296 299 295 296 297 297 297 296 295 297 296 297 299 300 304 305 313 313
320 320 320 319 318 318 319 319 319 319 318 318 318 314 307 300 297 305 313 311 308 306 303 302 300 300 296 297 297 296 296 296 296 297 297 297 296 296 297 299 302 308 306 311 313
319 319 319 318 316 317 317 318 318 318 318 318 316 310 305 294 303 307 306 306 306 305 304 303 301 302 299 296 297 297 296 296 297 297 296 295 296 296 297 298 301 306 309 311 312
318 318 318 315 316 316 315 316 316 317 317 316 312 306 301 296 305 308 307 305 306 305 302 303 303 301 300 296 297 296 294 294 296 297 295 296 294 293 298 297 298 302 307 311 313
318 317 316 316 316 315 315 315 315 313 312 312 310 307 296 304 308 306 307 306 308 307 304 305 305 301 299 299 296 293 294 292 294 296 296 296 292 295 297 297 297 299 304 307 310
316 316 315 315 315 315 314 314 314 311 312 311 307 305 296 310 302 305 306 303 306 306 308 305 304 300 300 295 294 297 291 291 292 295 294 295 293 297 298 298 298 298 298 302 304
315 315 315 314 314 312 312 313 314 311 309 305 306 302 301 297 302 303 307 305 304 304 303 302 301 298 296 295 288 289 290 291 291 293 292 293 294 298 300 298 298 299 298 297 298
315 314 313 314 313 310 311 311 305 301 302 296 296 297 298 302 304 302 304 303 304 302 297 298 296 291 291 292 292 292 291 290 292 292 289 292 292 293 297 297 297 298 298 297 297
313 313 312 314 311 311 311 302 299 302 294 299 299 299 299 301 297 300 305 299 298 295 298 298 290 292 292 292 291 291 290 289 291 291 288 289 288 294 292 292 293 293 295 296 297
312 312 312 312 310 310 305 302 306 305 297 294 297 296 296 300 294 295 299 299 295 294 294 292 289 292 290 290 290 288 286 286 284 288 290 286 290 290 290 292 293 293 294 295 295
309 311 311 311 309 306 302 305 307 304 289 290 294 296 298 298 294 298 298 296 295 287 291 289 291 290 289 286 287 287 286 286 285 285 284 286 285 288 289 289 290 291 292 292 294
309 308 309 311 307 304 303 306 307 304 285 291 292 300 298 293 293 294 298 297 290 288 292 286 287 287 286 284 287 285 286 285 284 283 283 283 284 287 288 286 287 289 291 292 293
307 307 308 309 308 303 305 307 302 289 285 286 292 291 292 293 292 295 294 297 294 290 290 287 289 287 286 287 287 287 284 283 284 285 283 275 279 286 285 285 286 288 289 291 292
307 304 304 304 302 305 305 304 288 286 288 288 287 290 288 287 288 290 289 287 287 286 285 286 285 287 287 286 288 287 285 287 284 284 282 273 277 285 285 286 286 286 288 290 291
307 304 300 300 304 306 304 296 287 284 287 288 288 288 286 286 287 288 288 287 288 287 286 284 287 285 286 284 282 282 282 283 275 278 280 273 279 283 285 287 288 288 288 288 289
305 306 304 300 302 303 299 286 285 289 289 287 288 286 286 286 285 287 286 286 285 286 284 284 284 284 283 284 284 282 284 281 277 269 275 282 284 285 285 285 285 285 285 285 286
305 303 301 300 301 303 287 285 287 288 290 289 285 285 285 286 285 286 283 286 285 286 286 283 283 282 283 284 283 283 282 281 281 275 275 280 279 282 282 283 282 282 283 284 285
304 302 301 300 302 295 286 285 286 289 290 288 286 285 284 286 283 284 284 286 287 286 286 284 283 282 281 281 284 281 282 280 280 278 277 275 280 283 282 280 280 282 283 283 283
301 291 300 300 289 285 285 286 288 289 291 289 288 286 287 284 283 284 283 285 288 287 284 285 282 281 286 281 283 282 283 282 279 277 277 275 277 284 281 281 281 281 283 284 284
300 299 302 302 286 285 284 285 288 288 288 287 286 287 286 285 283 283 284 288 288 286 284 285 284 280 283 279 280 279 281 281 279 279 276 275 278 280 284 282 282 281 282 283 283
300 288 293 295 293 291 286 286 286 289 288 288 287 287 284 282 282 282 283 286 288 287 287 286 282 281 279 281 280 278 280 280 279 277 278 279 281 281 281 278 279 279 281 283 282
297 291 288 286 292 289 288 287 285 285 288 288 285 285 285 281 281 280 283 284 286 287 286 285 279 279 280 281 278 277 277 279 276 277 275 277 277 281 277 276 277 279 282 280 279
299 297 291 289 288 288 286 286 286 285 286 285 284 286 286 283 284 281 283 283 282 285 284 284 279 274 275 277 276 274 277 278 276 277 277 277 275 276 277 279 278 278 279 278 278
295 294 295 288 288 288 292 288 286 287 287 287 287 285 284 286 287 287 287 285 285 283 283 281 279 276 275 273 272 274 277 278 278 277 277 272 275 277 275 275 276 278 279 278 278
Wind_Speed
7 8 10 11 12 13 14 14 14 13 12 11 11 9 9 10 7 6 13 11 12 18 16 6 3 1 2 3 3 2 4 3 3 2 4 3 2 3 2 2 2 4 6 4 10
7 10 11 11 12 12 14 14 13 13 12 11 10 10 8 8 4 16 9 16 15 14 8 6 3 2 3 2 2 3 3 3 4 3 3 2 3 4 3 3 3 4 5 4 9
7 8 10 11 12 13 14 14 13 12 12 11 10 9 8 6 3 9 18 19 16 13 6 6 3 2 4 3 4 4 4 3 4 6 3 2 1 2 3 5 3 2 2 5 7
6 8 9 11 12 14 14 14 13 12 12 11 10 9 7 5 2 11 17 18 14 8 6 5 2 1 2 3 3 3 4 4 3 5 4 3 5 4 4 5 3 3 2 7 8
7 8 8 9 11 13 15 15 15 13 10 10 10 9 5 8 7 13 14 12 6 6 6 5 3 1 4 4 3 5 4 3 3 5 6 8 6 7 7 1 3 3 2 5 5
7 8 8 9 12 13 13 14 14 13 10 9 9 8 2 10 8 13 13 9 11 8 8 8 6 5 6 4 5 3 3 4 5 6 5 8 7 5 4 5 3 2 1 3 5
7 8 8 11 12 14 15 12 11 10 10 10 8 4 18 9 6 12 10 6 8 8 6 9 6 4 1 4 2 3 1 3 9 9 4 8 8 6 5 3 5 3 3 2 4
7 8 9 10 12 14 14 10 8 6 6 7 7 2 7 3 6 14 13 5 7 5 4 6 6 4 6 2 2 1 3 1 7 10 3 8 4 3 1 4 6 4 4 4 4
9 10 11 12 12 13 13 9 8 3 8 7 2 2 5 4 9 13 8 7 6 3 4 2 3 4 2 3 2 8 4 7 4 6 6 3 11 1 4 6 9 6 5 3 3
11 12 13 13 15 12 9 4 9 2 5 2 9 3 7 9 9 11 9 7 4 5 2 5 4 7 11 8 4 6 5 5 7 8 9 9 13 11 10 7 9 8 4 3 2
12 14 15 11 13 12 5 4 4 6 17 9 6 5 6 13 5 11 8 8 3 5 4 7 9 9 10 8 5 6 6 8 6 6 11 9 16 17 11 8 10 9 6 2 3
11 13 15 11 9 7 4 6 5 5 10 9 7 5 4 7 4 20 17 5 8 6 1 5 9 8 5 6 4 6 4 6 2 3 7 10 19 7 11 9 9 9 10 8 4
10 11 13 9 8 6 10 6 4 5 1 6 5 6 6 9 7 14 13 4 8 8 13 8 6 6 3 9 6 7 5 6 5 13 5 15 6 9 10 13 12 13 10 8 6
12 11 13 10 1 3 5 4 4 4 6 14 9 7 5 5 3 6 8 5 5 2 5 7 5 5 4 5 8 1 5 5 7 8 4 9 0 7 10 12 15 14 14 14 10
14 11 8 14 3 3 3 5 3 3 5 12 7 5 7 7 9 10 5 3 7 5 2 4 6 7 5 3 6 3 5 4 3 3 5 4 2 7 9 11 15 15 15 14 12
11 15 7 2 4 3 4 3 4 8 5 5 6 10 5 8 5 8 5 6 1 2 10 4 1 4 5 5 3 7 4 3 2 1 2 2 5 3 5 6 10 14 15 15 13
9 12 7 3 3 5 4 3 6 7 1 4 4 6 4 7 6 8 5 10 6 5 6 1 3 2 4 4 2 7 3 3 2 2 2 1 5 4 5 8 11 12 14 14 14
7 4 5 3 3 4 3 4 9 1 3 1 3 5 5 10 5 8 3 4 9 4 1 4 2 3 7 4 3 5 2 2 5 4 6 2 6 3 8 11 10 12 12 14 15
6 1 1 6 4 2 3 7 6 4 1 2 2 2 3 2 2 3 5 4 5 8 4 5 1 3 4 2 3 2 0 2 2 1 3 3 4 9 8 6 12 14 14 15 15
3 3 2 8 5 2 8 3 1 1 0 2 1 1 1 4 2 3 2 1 1 3 1 3 5 1 1 1 4 2 3 1 2 4 6 5 5 6 6 2 9 13 12 13 12
2 3 3 5 3 6 5 3 2 1 2 3 1 2 2 2 1 1 0 3 0 2 2 2 0 1 1 5 3 3 2 1 3 3 5 6 3 1 8 5 6 5 9 8 11
1 3 4 4 6 3 3 1 2 2 1 1 3 1 2 1 2 2 2 1 2 1 3 3 3 5 1 3 2 1 3 4 4 2 3 4 8 5 7 2 2 7 9 10 8
1 2 3 2 4 2 1 0 1 3 3 3 2 2 1 1 3 1 2 3 1 1 3 1 1 5 3 2 2 4 5 4 1 3 9 8 5 3 2 5 6 8 9 8 9
2 5 5 5 0 6 5 3 3 2 2 2 0 2 2 0 1 3 2 1 1 1 1 1 3 5 8 3 3 5 7 9 7 6 9 14 15 6 7 9 11 11 9 7 10
4 1 1 2 2 2 1 5 4 4 3 4 1 7 3 2 1 3 3 2 3 3 2 2 6 3 11 7 5 9 15 11 14 14 10 18 13 6 6 7 8 10 9 10 13
1 2 2 1 3 2 2 4 5 1 6 3 4 3 7 4 2 2 3 3 3 3 3 1 2 2 6 4 7 13 23 14 14 16 17 19 20 5 5 6 8 12 9 10 13
2 2 2 2 0 1 2 3 5 5 3 2 4 4 5 5 3 2 3 1 2 2 6 2 2 2 6 5 10 9 8 9 4 6 4 6 4 8 7 10 13 10 9 12 17
Wind_Direction
360 355 357 2 7 6 4 355 359 354 356 357 351 352 352 327 275 69 42 334 320 320 315 286 244 16 203 89 11 290 226 166 109 178 84 26 283 63 24 280 82 43 34 62 116
8 0 355 356 1 2 356 352 355 352 352 355 351 344 339 330 336 52 2 341 333 330 328 344 75 9 91 66 33 311 276 64 40 50 64 43 326 345 282 180 155 145 103 138 139
12 357 351 352 356 353 348 348 348 352 348 347 343 336 325 302 258 14 358 341 335 315 309 314 307 337 71 23 15 23 32 114 63 26 3 8 226 347 288 238 48 10 119 154 168
9 351 353 352 352 345 342 343 343 347 344 344 338 331 314 234 18 352 347 332 327 314 304 316 268 105 92 82 30 124 46 9 38 19 337 357 321 271 271 26 4 310 294 168 185
3 345 346 348 346 341 339 341 337 338 336 338 336 329 277 69 27 337 336 340 329 333 6 353 12 22 97 95 93 62 95 56 35 0 350 330 302 309 277 19 321 11 203 181 193
348 338 342 347 341 337 334 335 335 334 332 337 340 310 247 77 336 347 345 356 13 7 30 15 27 23 79 57 21 66 82 70 33 10 8 334 303 323 84 352 325 319 207 174 187
342 339 350 342 338 332 333 336 339 338 336 339 349 16 64 43 338 350 355 3 2 17 35 23 352 339 322 117 67 96 158 112 34 2 16 336 257 246 27 333 301 262 238 216 194
349 343 336 332 327 327 333 337 350 351 344 337 313 32 69 349 333 9 2 40 29 37 37 6 341 62 15 101 131 313 243 242 47 7 27 333 330 43 262 296 287 268 222 224 203
353 346 340 335 329 323 320 322 348 316 343 326 336 344 53 324 4 353 4 346 325 54 45 312 42 43 23 320 118 25 22 15 111 40 325 313 307 109 242 280 288 271 256 232 233
349 345 341 338 336 337 316 309 328 111 311 226 44 131 40 343 336 322 353 335 345 320 148 30 44 62 34 16 56 7 9 353 358 7 339 300 279 307 303 268 289 289 270 266 278
348 346 343 339 354 347 314 260 192 33 40 48 17 56 3 333 288 12 346 316 329 50 42 36 58 41 20 18 7 341 343 340 17 23 326 300 306 313 330 346 339 307 284 296 301
356 350 350 340 349 0 29 56 33 6 76 41 40 54 9 330 334 13 350 31 39 51 4 75 60 15 354 6 351 2 344 5 293 324 313 326 310 49 37 35 28 17 14 9 336
4 351 348 336 327 33 69 58 333 321 10 44 32 13 345 336 28 359 3 13 47 40 44 63 25 335 341 28 356 46 18 359 320 315 239 321 114 97 76 74 65 43 31 18 12
13 354 345 332 348 354 52 357 333 314 77 357 2 38 344 327 52 1 13 354 55 112 46 64 13 7 35 67 353 294 3 318 318 336 320 12 265 130 112 79 50 39 28 21 5
12 8 3 14 91 46 12 317 308 240 58 341 347 320 339 39 318 41 350 21 51 41 266 46 10 16 46 12 344 11 330 318 328 303 316 35 266 104 158 62 45 39 33 25 15
14 8 338 49 66 37 313 293 252 43 50 336 330 357 16 21 29 326 18 58 57 12 55 80 64 24 351 314 318 325 306 286 241 191 249 54 349 57 38 21 50 35 24 20 13
9 33 42 343 34 336 300 235 40 70 319 331 338 353 341 359 7 13 39 44 33 30 20 178 54 51 353 304 189 352 316 328 262 264 308 3 269 352 46 69 56 26 15 15 12
353 344 31 48 341 317 259 54 66 197 251 10 322 320 32 358 36 350 353 59 54 358 62 17 245 13 355 30 339 14 14 14 297 291 332 180 238 118 95 108 58 34 24 15 13
312 348 57 11 341 283 62 58 179 184 136 215 208 48 357 52 336 355 43 32 18 11 10 339 246 112 40 347 324 61 92 37 111 119 254 261 246 122 119 76 19 25 22 18 13
337 304 50 336 322 243 72 138 175 347 176 229 151 270 280 337 335 30 1 81 70 41 30 65 289 89 132 259 64 319 82 203 174 281 274 205 256 280 184 69 2 17 16 3 5
339 318 61 340 264 45 95 161 206 192 312 321 195 172 231 256 297 249 233 136 142 94 29 107 297 187 181 195 155 151 190 209 317 257 278 299 240 359 107 59 356 339 353 2 2
348 358 34 311 36 37 78 95 285 145 191 294 302 15 261 178 269 290 308 314 61 37 340 58 313 275 259 110 357 283 268 229 251 216 248 303 275 85 105 85 342 351 354 354 355
330 276 88 307 94 49 12 85 211 156 208 203 229 306 44 288 311 278 295 63 78 315 354 66 242 301 219 165 164 226 203 211 4 298 239 259 262 184 110 54 24 357 346 340 339
314 344 340 50 360 138 153 184 190 233 183 185 237 160 172 180 142 316 283 97 164 264 41 257 268 244 266 348 347 253 224 218 208 252 271 240 270 232 346 6 357 342 341 337 340
9 17 306 302 35 83 15 151 147 197 235 196 244 227 181 189 237 242 232 237 190 163 213 255 257 283 273 273 242 260 262 227 214 238 254 273 280 313 11 345 325 309 326 342 337
153 160 144 89 330 151 123 214 209 203 156 215 219 186 185 207 236 257 202 226 273 176 215 162 283 10 277 322 288 268 268 258 234 252 260 271 283 32 323 311 325 320 333 323 323
136 129 277 111 166 233 255 196 201 155 183 4 221 158 222 249 300 1 346 353 333 213 199 229 284 327 268 356 318 267 265 227 187 195 223 234 25 359 340 332 323 311 313 315 329